STARLINK-1894 (46744 NORAD) Tracking and Keplerian Element Data

This shows tracking and keplerian element data for the satellite.

Feedback or suggestion? Click here.




ElementValue
Catalog46744
NameSTARLINK-1894
Epoch Orbit1428
Epoch Day21.16668981
Epoch Year2021
RAAN92.1777
Inclination53.0558
Eccentricity0.0001569
Argument of Perigee75.4342
Mean Anonmoly236.0633
Mean Motion15.0639279
Decay Rate0.00024854
L11 46744U 20074F 21021.16668981 .00024854 00000-0 16819-2 0 9999
L22 46744 53.0558 92.1777 0001569 75.4342 236.0633 15.06392790 14282

Live tracking and technical data element details for STARLINK-1894 (NORAD 46744). STARLINK-1894 can be tracked NOW for your location showing map with azimuth and elevation plus other details from your city location.

Track the satellite on the map from your city or location and see movement details for azimuth, elevation, latitude, longitude, range, height, and movement on the map or in text.







IsCatalogInMostPopularTable: catalog: 46744, numindb: 29
Update: records affected: 1



GetName: 46744 STARLINK-1894

Hit Count: updated at: Fri, 22 Jan 2021 18:20:05 GMT